Tonopah, Nevada Weather observations

Data are for observation ending at time listed.
 Day   Time    Ave.   Ave.  Ave.  Vector   Max.   Stn.    Total    Solar   Ave.  
  of    of     Air    Rel.  Wind   Wind    Wind   Baro.  Precip.   Rad.    Soil  
Year   Day     Temp.  Hum.  Speed  Dir.    Gust   Pres.                    Temp. 
2016   (PST)    F      %     mph   deg.    mph     mb.     in.     W/m2     F   
------------------------------------------------------------------------------
 175   14:00   89.5     6   11.9   270     21.3   814.5    0.00     951    91.8
 175   14:10   89.1     6   12.9   290     18.9   814.5    0.00     933    91.8
 175   14:20   89.3     6    9.7   266     20.8   814.4    0.00     910    91.9
 175   14:30   88.9     6   10.9   276     19.7   814.4    0.00     890    91.8
 175   14:40   89.3     6    8.2   305     15.3   814.3    0.00     861    91.7
 175   14:50   89.9     6    7.1   265     16.5   814.1    0.00     838    91.7
 175   15:00   90.6     6    9.8   283     23.2   814.0    0.00     815    91.5
 175   15:10   90.2     6   14.5   273     22.8   813.8    0.00     785    91.5
 175   15:20   89.6     6   11.7   287     24.9   813.8    0.00     759    91.5
 175   15:30   89.6     6   13.3   278     24.5   813.7    0.00     727    91.4
 175   15:40   89.4     6   12.1   278     23.6   813.7    0.00     695    91.3
 175   15:50   89.6     6   10.1   284     18.9   813.8    0.00     664    91.3
 175   16:00   89.3     7    8.6   276     15.2   813.7    0.00     622    91.1
 175   16:10   89.0     7   12.7   274     20.2   813.7    0.00     589    91.0
 175   16:20   88.6     7    8.4   278     21.5   813.6    0.00     565    90.8
 175   16:30   88.9     7   10.1   276     21.0   813.5    0.00     528    90.7
 175   16:40   88.9     7   12.0   265     23.9   813.4    0.00     494    90.6
 175   16:50   88.7     7   10.8   276     19.5   813.4    0.00     462    90.5
 175   17:00   88.0     7   12.8   276     21.5   813.3    0.00     425    90.3
 175   17:10   87.6     8   12.8   280     20.9   813.3    0.00     387    90.2
 175   17:20   87.4     8   13.5   287     22.9   813.3    0.00     353    90.2
 175   17:30   87.2     8   13.4   287     23.5   813.3    0.00     317    90.1
 175   17:40   86.9     8   12.9   280     19.9   813.4    0.00     282    89.9
 175   17:50   86.6     8   13.1   281     21.8   813.4    0.00     248    89.8
 175   18:00   85.8     8   14.7   277     25.6   813.5    0.00     215    89.7
 175   18:10   85.3     9   13.7   286     23.4   813.5    0.00     170    89.5
 175   18:20   84.8     9   12.5   283     22.7   813.6    0.00     126    89.3
 175   18:30   84.3     9   13.0   276     24.8   813.6    0.00      97    89.2
 175   18:40   83.8     9   14.0   277     22.2   813.7    0.00      25    89.0
 175   18:50   83.4     9   12.0   274     18.8   813.7    0.00      49    88.8
 175   19:00   82.7     9   13.0   275     20.2   813.8    0.00      34    88.7
 175   19:10   81.8     9   10.8   281     20.9   813.9    0.00      16    88.5
 175   19:20   80.8    10   11.4   284     20.8   813.9    0.00       6    88.4
 175   19:30   79.9    10   10.6   286     16.6   813.9    0.00       4    88.2
 175   19:40   79.1    10   10.6   284     17.3   814.0    0.00       0    88.0
 175   19:50   78.2    10   10.4   285     15.5   814.0    0.00       0    87.8
 175   20:00   77.1    10    9.4   285     14.1   814.1    0.00       0    87.6
 175   20:10   76.6     9    9.4   292     16.8   814.2    0.00       0    87.4
 175   20:20   76.1     9   11.2   291     16.9   814.2    0.00       0    87.2
 175   20:30   75.5     9   11.4   290     16.1   814.2    0.00       0    87.0
 175   20:40   75.1    10   11.0   289     18.0   814.3    0.00       0    86.8
 175   20:50   74.9    10   12.2   291     17.8   814.4    0.00       0    86.6
 175   21:00   74.6    10   11.6   294     18.7   814.4    0.00       0    86.4
 175   21:10   73.9    10   10.9   294     19.4   814.5    0.00       0    86.2
 175   21:20   73.2    10   11.3   294     20.2   814.5    0.00       0    86.0
 175   21:30   72.8    10   11.4   295     15.9   814.5    0.00       0    85.8
 175   21:40   72.7    10   10.1   301     16.8   814.6    0.00       0    85.6
 175   21:50   72.3    11   11.7   304     21.3   814.7    0.00       0    85.5
 175   22:00   71.9    11   11.2   304     18.3   814.7    0.00       0    85.3
 175   22:10   71.7    11   11.0   301     18.3   814.8    0.00       0    85.1
 175   22:20   71.3    11   10.6   297     16.5   814.9    0.00       0    84.9
 175   22:30   71.0    11   10.7   294     20.2   814.9    0.00       0    84.7
 175   22:40   70.5    12   10.4   292     17.6   815.0    0.00       0    84.5
 175   22:50   70.1    12   10.6   287     17.8   814.9    0.00       0    84.3
 175   23:00   69.6    12    7.4   291     14.9   815.0    0.00       0    84.1
 175   23:10   68.6    12    5.9   291      8.9   815.0    0.00       0    83.9
 175   23:20   68.2    13    7.1   287     11.4   815.0    0.00       0    83.7
 175   23:30   68.3    13    8.2   290     11.2   814.9    0.00       0    83.6
 175   23:40   68.0    13    7.2   292     10.1   814.8    0.00       0    83.4
 175   23:50   67.8    13    5.9   299      8.8   814.9    0.00       0    83.2
 176    0:00   67.3    13    2.8   296      5.9   814.9    0.00       0    83.1
 176    0:10   67.1    13    3.2   278      5.3   814.9    0.00       0    82.9
 176    0:20   66.9    13    4.2   274      6.6   814.9    0.00       0    82.7
 176    0:30   66.8    13    4.6   266      7.1   814.8    0.00       0    82.5
 176    0:40   66.7    13    4.8   275      7.6   814.8    0.00       0    82.3
 176    0:50   66.6    13    4.3   278      7.7   814.7    0.00       0    82.1
 176    1:00   66.0    13    3.9   312      8.3   814.8    0.00       0    82.0
 176    1:10   64.9    14    5.0   313      7.6   814.7    0.00       0    81.8
 176    1:20   64.1    14    6.7   294     11.0   814.7    0.00       0    81.6
 176    1:30   64.6    14    9.0   289     12.4   814.5    0.00       0    81.5
 176    1:40   64.0    14    8.0   285     11.0   814.5    0.00       0    81.3
 176    1:50   63.6    14    7.0   281      9.9   814.5    0.00       0    81.1
 176    2:00   63.5    14    6.6   282     10.4   814.5    0.00       0    80.9
 176    2:10   63.9    14    7.0   287     10.7   814.6    0.00       0    80.8
 176    2:20   64.0    14    7.0   292     10.7   814.5    0.00       0    80.6
 176    2:30   63.7    14    4.7   309      8.7   814.6    0.00       0    80.5
 176    2:40   62.5    15    3.2   330      5.4   814.6    0.00       0    80.3
 176    2:50   61.9    15    3.1   332      5.6   814.6    0.00       0    80.1
 176    3:00   61.9    15    3.5   315      5.4   814.5    0.00       0    80.0
 176    3:10   61.3    16    3.5   320      5.1   814.5    0.00       0    79.8
 176    3:20   61.1    16    3.1   312      5.0   814.4    0.00       0    79.7
 176    3:30   60.8    16    2.8   314      4.2   814.4    0.00       0    79.5
 176    3:40   60.5    17    4.5   312      7.1   814.5    0.00       0    79.3
 176    3:50   60.8    16    3.2   314      4.2   814.5    0.00       0    79.2
 176    4:00   61.3    16    3.5   323      5.3   814.6    0.00       0    79.0
 176    4:10   61.4    16    3.4   319      5.2   814.6    0.00       0    78.9
 176    4:20   61.2    16    2.2   321      2.9   814.7    0.00       1    78.7
 176    4:30   60.8    16    3.2   326      5.2   814.7    0.00       4    78.5
 176    4:40   60.7    16    4.6   321      6.4   814.8    0.00       7    78.4
 176    4:50   60.8    17    3.9   311      6.0   814.9    0.00      11    78.2
 176    5:00   59.8    18    4.0   315      5.1   814.9    0.00      14    78.1
 176    5:10   59.3    18    3.7   309      4.8   814.9    0.00      33    77.9
 176    5:20   61.1    17    2.7   303      3.7   814.9    0.00      99    77.8
 176    5:30   63.8    16    3.1   292      6.3   815.0    0.00     136    77.6
 176    5:40   65.4    15    4.1   291      6.8   815.0    0.00     168    77.5
 176    5:50   65.8    14    5.0   284      7.5   815.1    0.00     200    77.4
 176    6:00   65.6    14    6.0   286      9.1   815.1    0.00     234    77.3
 176    6:10   65.6    14    6.4   285      9.3   815.2    0.00     270    77.3
 176    6:20   65.7    14    6.2   286      9.9   815.3    0.00     305    77.2
 176    6:30   66.4    14    6.7   291      9.3   815.3    0.00     341    77.2
 176    6:40   67.0    14    7.4   292     10.7   815.4    0.00     377    77.3
 176    6:50   67.5    14    6.7   290      9.9   815.4    0.00     411    77.3
 176    7:00   68.8    14    5.7   291      9.2   815.4    0.00     446    77.3
 176    7:10   69.5    13    6.0   285      8.8   815.5    0.00     480    77.4
 176    7:20   69.9    13    5.8   291      8.5   815.5    0.00     516    77.6
 176    7:30   70.6    13    5.4   292     10.2   815.6    0.00     551    77.8
 176    7:40   71.3    12    7.5   304     11.8   815.6    0.00     586    77.9
 176    7:50   71.6    12    9.0   302     13.9   815.6    0.00     620    78.1
 176    8:00   72.2    12   10.0   294     15.1   815.5    0.00     652    78.4
 176    8:10   73.1    11    9.1   306     15.2   815.5    0.00     686    78.6
 176    8:20   73.6    11   10.0   315     15.8   815.4    0.00     720    78.9
 176    8:30   74.4    11    9.2   312     15.0   815.4    0.00     749    79.2
 176    8:40   74.5    11   10.0   299     15.6   815.4    0.00     775    79.5
 176    8:50   75.3    11   10.3   311     16.6   815.3    0.00     805    79.8
 176    9:00   75.9    11   10.5   299     20.1   815.2    0.00     830    80.1
 176    9:10   75.9    11   10.8   299     17.0   815.2    0.00     856    80.4
 176    9:20   76.6    11   11.5   301     19.4   815.1    0.00     881    80.7
 176    9:30   77.5    11   11.2   294     19.6   815.1    0.00     903    81.0
 176    9:40   77.6    11   11.9   300     20.2   815.1    0.00     927    81.3
 176    9:50   77.8    11   12.0   304     18.5   815.1    0.00     947    81.6
 176   10:00   78.6    10   11.9   297     22.6   815.1    0.00     954    81.9
 176   10:10   78.9    10    9.9   294     17.8   815.2    0.00     962    82.2
 176   10:20   79.7    10   11.8   278     19.6   815.2    0.00     975    82.6
 176   10:30   80.5    10   10.5   282     17.6   815.2    0.00     996    83.0
 176   10:40   80.4    10   10.9   286     19.8   815.2    0.00    1012    83.4
 176   10:50   80.7    10    9.5   296     16.4   815.1    0.00    1028    83.8
 176   11:00   80.7    10   11.5   290     20.8   815.0    0.00    1037    84.1
 176   11:10   81.3    10   12.4   297     23.0   814.9    0.00    1047    84.6
 176   11:20   81.5    10   11.1   292     19.6   814.9    0.00    1054    85.0
 176   11:30   81.7    10   11.9   285     23.3   814.7    0.00    1058    85.4
 176   11:40   82.1    10   10.4   302     21.0   814.8    0.00    1062    85.8
 176   11:50   82.4    10   10.5   296     21.8   814.7    0.00    1059    86.2
 176   12:00   82.4    10   11.0   291     18.6   814.7    0.00    1059    86.6
 176   12:10   82.8    10    9.7   286     20.4   814.7    0.00    1055    87.0
 176   12:20   83.0    10   11.1   299     18.1   814.5    0.00    1052    87.4
 176   12:30   83.1    10    9.5   303     19.6   814.5    0.00    1047    87.8
 176   12:40   83.7    10   10.7   302     21.6   814.5    0.00    1042    88.2
 176   12:50   82.9    10   11.5   314     19.8   814.4    0.00    1038    88.5
 176   13:00   83.3    10   12.0   320     20.3   814.3    0.00    1029    88.8
 176   13:10   83.5    10   11.3   304     23.0   814.3    0.00    1010    89.0
 176   13:20   83.6     9    7.6   297     21.8   814.3    0.00    1005    89.2
 176   13:30   84.0     9   10.3   313     18.2   814.2    0.00     990    89.3
 176   13:40   84.4     9    8.5   288     19.6   814.2    0.00     978    89.4
 176   13:50   85.8     9   10.3   286     19.6   814.1    0.00     962    89.5

Return to Tonopah, Nevada graphs page.


Western Regional Climate Center,wrcc@dri.edu